Location: Bh?mavarapp?du
(16.7041°N, 80.6518°E)
Time: 07:25:56
(UTC+00:00)

USA 186 - Pass Details

Date: 21 April 2021
Orbit: 261 x 463 km, 96.9° (Epoch: 06 May)

Event Time Altitude Azimuth Distance (km) Brightness Sun altitude
Exits shadow 14:40:35 32° 336° (NNW) 797 3.5 -25.1°
Drops below altitude 10° 14:42:30 10° 344° (NNW) 1,553 5.1 -25.5°
Sets 14:44:28 0° 346° (NNW) 2,395 6.1 -26.0°
